This is the latest recevied weather packets stored in our database for station/object SQ8SW-4. If no packets are shown the sender has not sent any weather packets the latest 10 day(s).
| Time | Temp. | Humidity | Pressure | Rain* | Wind** | Luminosity | Snow |
|---|---|---|---|---|---|---|---|
| 1777437053 | 0.56° C | 74% | 996 hPa | - | - | - | - |
| 1777436151 | 0° C | 76% | 996 hPa | - | - | - | - |
| 1777435248 | -0.56° C | 78% | 996 hPa | - | - | - | - |
| 1777434346 | 0° C | 78% | 996 hPa | - | - | - | - |
| 1777433444 | 0° C | 77% | 995 hPa | - | - | - | - |
| 1777432542 | 0° C | 76% | 995 hPa | - | - | - | - |
| 1777431640 | 0.56° C | 76% | 995 hPa | - | - | - | - |
| 1777430737 | 0.56° C | 75% | 995 hPa | - | - | - | - |
| 1777429835 | 0.56° C | 77% | 995 hPa | - | - | - | - |
| 1777428933 | 0.56° C | 76% | 995 hPa | - | - | - | - |
| 1777428031 | 0.56° C | 76% | 995 hPa | - | - | - | - |
| 1777427129 | 0.56° C | 76% | 995 hPa | - | - | - | - |
| 1777426226 | 0.56° C | 75% | 995 hPa | - | - | - | - |
| 1777425324 | 0.56° C | 75% | 995 hPa | - | - | - | - |
| 1777424422 | 0.56° C | 75% | 995 hPa | - | - | - | - |
| 1777423520 | 1.11° C | 74% | 995 hPa | - | - | - | - |
| 1777422617 | 1.11° C | 73% | 995 hPa | - | - | - | - |
| 1777421715 | 1.67° C | 73% | 995 hPa | - | - | - | - |
| 1777420813 | 1.67° C | 72% | 995 hPa | - | - | - | - |
| 1777419911 | 1.67° C | 70% | 995 hPa | - | - | - | - |
| 1777419008 | 2.22° C | 70% | 995 hPa | - | - | - | - |
| 1777418106 | 2.22° C | 69% | 995 hPa | - | - | - | - |
| 1777417204 | 2.78° C | 67% | 995 hPa | - | - | - | - |
| 1777416301 | 2.78° C | 64% | 995 hPa | - | - | - | - |
| 1777415399 | 2.78° C | 65% | 995 hPa | - | - | - | - |
* Rain since midnight (hover to see other rain measurements)
** Current wind speed in m/s (hover to see current wind gust speed)